Home   Weather   Neuwied   Past weeks

Flag for Germany Past Weather in Neuwied, Rhineland-Palatinate, Germany — Yesterday and Last 2 Weeks

Now
59 °F

Refreshingly cool.


Feels Like: 58 °F
Forecast: 48 / 80 °F
Wind: 7 mph from Northeast

Location: Buechel

Current Time: Aug 31, 2016 at 12:56:24 AM

Latest Report: Aug 30, 2016 at 11:20 PM


Visibility: 5 mi

Pressure: 30.24 "Hg

Humidity: 59%

Dew Point: 45 °F

Location of NeuwiedLocation

Past Weather in Neuwied — Graph

°F

Neuwied Temperature Yesterday

Maximum temperature yesterday: 70 °F (at 3:20 PM)
Minimum temperature yesterday: 54 °F (at 7:20 AM)
Average temperature yesterday: 62 °F

High & Low Weather Summary for the Past Weeks

 TemperatureHumidityPressure
High90 °F (Aug 26, 3:20 PM)100% (Aug 18, 11:20 PM)30.39 "Hg (Aug 18, 11:20 PM)
Low52 °F (Aug 19, 6:20 AM)35% (Aug 25, 3:20 PM)29.83 "Hg (Aug 18, 6:20 AM)
Average67 °F69%30.09 "Hg
* Reported Aug 15 11:20 PM — Aug 30 11:20 PM, Neuwied, Weather by CustomWeather, © 2016

Note: Actual official high and low records may vary slightly from our data, if they occured in-between our weather recording intervals... More about our weather records

Advertising

Neuwied Weather History for the Previous 24 Hours

Scroll right to see more
 ConditionsComfort  
Time TempWeatherWind HumidityBarometerVisibility
11:20 PM
Tue, Aug 30
59 °FRefreshingly cool.7 mph59%30.24 "Hg5 mi
10:20 PM61 °FRefreshingly cool.8 mph55%30.24 "Hg5 mi
9:20 PM63 °FPassing clouds.7 mph56%30.24 "HgN/A
8:20 PM64 °FPassing clouds.7 mph52%30.24 "HgN/A
7:20 PM68 °FPassing clouds.9 mph46%30.24 "HgN/A
6:20 PM70 °FPassing clouds.8 mph46%30.24 "HgN/A
5:20 PM70 °FPassing clouds.8 mph46%30.27 "HgN/A
4:20 PM70 °FPassing clouds.7 mph43%30.27 "HgN/A
3:20 PM70 °FPassing clouds.8 mph46%30.27 "HgN/A
2:20 PM68 °FPassing clouds.7 mph53%30.30 "HgN/A
1:20 PM66 °FScattered clouds.8 mph56%30.30 "HgN/A
12:20 PM64 °FScattered clouds.7 mph64%30.33 "HgN/A
11:52 AM64 °FScattered clouds.8 mph64%30.33 "HgN/A
11:20 AM64 °FScattered clouds.8 mph68%30.33 "HgN/A
10:20 AM61 °FScattered clouds.7 mph83%30.33 "HgN/A
9:20 AM59 °FScattered clouds.7 mph88%30.30 "Hg5 mi
8:20 AM57 °FFog.6 mph88%30.30 "Hg3 mi
7:20 AM54 °FFog.5 mph94%30.27 "Hg2 mi
6:20 AM55 °FFog.5 mph94%30.27 "Hg2 mi
5:59 AM55 °FFog.6 mph94%30.27 "Hg2 mi
4:20 AM57 °FCool.6 mph88%30.27 "Hg3 mi
3:20 AM57 °FCool.7 mph94%30.27 "Hg2 mi
2:20 AM57 °FCool.7 mph94%30.27 "Hg2 mi
1:20 AM57 °FCool.7 mph94%30.27 "Hg3 mi
12:20 AM59 °FCool.7 mph88%30.24 "Hg4 mi
Weather by CustomWeather, © 2016

See weather overviewHow to use our weather pages